This is the latest recevied weather packets stored in our database for station/object SP1BMW-13. If no packets are shown the sender has not sent any weather packets the latest 1 day(s).
| Time | Temp. | Humidity | Pressure | Rain* | Wind** | Luminosity | Snow |
|---|---|---|---|---|---|---|---|
| 1778106893 | 7.22° C | 87% | 1009.2 hPa | 0 mm | 0.89 m/s, 22° | 0 W/m² | - |
| 1778106653 | 7.22° C | 87% | 1009.1 hPa | 0 mm | 1.34 m/s, 43° | 0 W/m² | - |
| 1778106533 | 7.22° C | 87% | 1009.1 hPa | 0 mm | 2.24 m/s, 46° | 0 W/m² | - |
| 1778106473 | 7.22° C | 87% | 1009.1 hPa | 0 mm | 0.45 m/s, 9° | 0 W/m² | - |
| 1778106413 | 7.22° C | 87% | 1008.9 hPa | 0 mm | 0.89 m/s, 19° | 0 W/m² | - |
| 1778106113 | 7.22° C | 88% | 1009.1 hPa | 0 mm | 1.79 m/s, 291° | 0 W/m² | - |
| 1778105873 | 7.22° C | 88% | 1009.2 hPa | 0 mm | 0.89 m/s, 56° | 0 W/m² | - |
| 1778105813 | 7.22° C | 88% | 1009.2 hPa | 0 mm | 0.45 m/s, 326° | 0 W/m² | - |
| 1778105693 | 7.22° C | 88% | 1009 hPa | 0 mm | 0.89 m/s, 16° | 0 W/m² | - |
| 1778105453 | 7.22° C | 88% | 1009.1 hPa | 0 mm | 0.89 m/s, 48° | 0 W/m² | - |
| 1778104973 | 7.22° C | 88% | 1009.2 hPa | 0 mm | 0.45 m/s, 26° | 0 W/m² | - |
| 1778104133 | 7.22° C | 88% | 1008.9 hPa | 0 mm | 0.89 m/s, 334° | 0 W/m² | - |
| 1778104073 | 7.22° C | 88% | 1009.2 hPa | 0 mm | 0.45 m/s, 17° | 0 W/m² | - |
| 1778103953 | 7.22° C | 88% | 1009.2 hPa | 0 mm | 0.89 m/s, 24° | 0 W/m² | - |
| 1778103833 | 7.22° C | 88% | 1009.2 hPa | 0 mm | 1.34 m/s, 311° | 0 W/m² | - |
| 1778103773 | 7.22° C | 88% | 1009.1 hPa | 0 mm | 1.34 m/s, 38° | 0 W/m² | - |
| 1778103653 | 7.22° C | 88% | 1009.1 hPa | 0 mm | 1.34 m/s, 49° | 0 W/m² | - |
| 1778102633 | 7.22° C | 88% | 1009.1 hPa | 0 mm | 1.34 m/s, 109° | 0 W/m² | - |
| 1778102573 | 7.22° C | 88% | 1009.1 hPa | 0 mm | 0.89 m/s, 113° | 0 W/m² | - |
| 1778102453 | 7.22° C | 88% | 1009.1 hPa | 0 mm | 0.45 m/s, 342° | 0 W/m² | - |
| 1778102213 | 7.22° C | 88% | 1009.2 hPa | 0 mm | 0.45 m/s, 349° | 0 W/m² | - |
| 1778101793 | 7.22° C | 88% | 1009 hPa | 0 mm | 0.45 m/s, 24° | 0 W/m² | - |
| 1778101672 | 7.22° C | 88% | 1008.9 hPa | 0 mm | 0.45 m/s, 44° | 0 W/m² | - |
| 1778101493 | 7.22° C | 88% | 1008.8 hPa | 0 mm | 0.89 m/s, 340° | 0 W/m² | - |
| 1778101433 | 7.22° C | 88% | 1008.8 hPa | 0 mm | 0 m/s | 0 W/m² | - |
* Rain latest hour (hover to see other rain measurements)
** Current wind speed in m/s (hover to see current wind gust speed)